Weather in Bacchus Marsh

Australia     37°40′31″S   144°26′10″E
temp.,
°C
wind,
m/s
gust,
m/s
humid.,
%
clouds,
%
prec.,
mm/h
press.,
hPa
HPBL,
m
17 june, thu
thu1701:00+7nnw228914 0.0 100918
04:00+6nnw229051 0.0 100915
07:00+8nnw128398 0.0 100934
10:00+10nw127698 0.0 1010372
13:00+13wnw235819 0.0 10091174
16:00+13sw236312 0.0 1008130
19:00+8wnw018586 0.0 101012
22:00+10n1180100 0.1 101027
18 june, fri
fri1801:00+10wnw1184100 0.1 100914
04:00+9s1293100 0.6 101089
07:00+7wsw229329 0.1 101224
10:00+11wsw377916 0.1 1014366
13:00+13ssw6877100 0.3 1014930
16:00+12s488760 1.0 1015444
19:00+10ssw3795100 0.5 1018248
22:00+10ssw379593 0.8 1020246
19 june, sat
sat1901:00+9sw369577 0.2 1020140
04:00+8wsw359734 0.3 1021124
07:00+8sw249778 0.1 1024107
10:00+11s348871 0.3 1025299
13:00+13sse576988 0.3 10251080
16:00+12sse477813 0.4 1025612
19:00+8ssw34956 0.1 102782
22:00+7sw22956 0.1 102721
20 june, sun
sun2001:00+6sw22953 0.0 102822
04:00+5sw11952 0.0 102710
07:00+5wsw22941 0.0 102712
10:00+9s24800 0.0 1028362
13:00+12se46640 0.0 1026841
16:00+11ese236914 0.0 1026306
19:00+7wnw11850 0.0 102711
22:00+6wnw22900 0.0 102821
21 june, mon
mon2101:00+6wnw22890 0.0 102714
04:00+5wnw22880 0.0 102711
07:00+5nw22880 0.0 102911
10:00+9nw11720 0.0 1029190
13:00+12se11593 0.0 1027926
16:00+11ese23665 0.0 1027161
19:00+7n11824 0.0 102811
22:00+6nw22872 0.0 102821